Regional Weather Roundup
Issued by NWS

Home | Current Version | Previous Version | Text Only | Print | Product List | Glossary On
Versions: 1 2 3 4 5 6 7 8 9 10 11 12 13 14 15 16 17 18 19 20 21 22 23 24 25 26 27 28 29 30 31 32 33 34 35 36 37 38 39 40 41 42 43 44 45 46 47 48 49 50
000
ASUS43 KTOP 040708
RWRKS

WEATHER ROUNDUP FOR KANSAS
NATIONAL WEATHER SERVICE GOODLAND KS
200 AM CDT FRI SEP 04 2015

NOTE:  "FAIR" INDICATES FEW OR NO CLOUDS BELOW 12,000 FEET WITH NO
SIGNIFICANT WEATHER AND/OR OBSTRUCTIONS TO VISIBILITY.

KSZ001>006-013>018-027>032-041>047-040800-
NORTHWEST KANSAS

CITY           SKY/WX    TMP DP  RH WIND       PRES   REMARKS
GOODLAND       MOCLDY    67  56  67 NW7       29.85F
HAYS           MOCLDY    81  57  44 S14G21    29.83S
HILL CITY      MOCLDY    82  59  45 S13G23    29.80S
RUSSELL        MOCLDY    79  60  52 S15       29.83R
$$

KSZ061>065-074>080-084>089-040800-
SOUTHWEST KANSAS

CITY           SKY/WX    TMP DP  RH WIND       PRES   REMARKS
DODGE CITY     PTCLDY    74  57  55 S15       29.88R
ELKHART          N/A     74  53  48 S12         N/A
GARDEN CITY    PTCLDY    75  57  53 S14       29.86R
GREAT BEND     MOCLDY    79  61  53 S18G25    29.85S
LIBERAL        PTCLDY    79  55  44 S17       29.90S
PRATT          PTCLDY    75  59  57 MISG      29.90R
$$

KSZ066>073-081>083-090>101-040800-
SOUTHEAST KANSAS

CITY           SKY/WX    TMP DP  RH WIND       PRES   REMARKS
CHANUTE        MOCLDY    73  68  84 SE7       29.94R
COFFEYVILLE    PTCLDY    74  69  85 S6        29.92F
HUTCHINSON     CLOUDY    77  63  61 S10       29.89R
MEDICINE LODGE   N/A     76  62  62 S7        29.88R
NEWTON         CLOUDY    75  61  60 S12       29.93R
PARSONS        MOCLDY    75  69  81 SE5       29.94S
WICHITA INTL   CLOUDY    76  64  66 S9        29.90R
WICHITA JABRA  CLOUDY    75  65  70 S9        29.91R
WICHITA MCCONL CLOUDY    76  64  67 SE9       29.90R
WINFIELD       MOCLDY    75  66  73 SE8       29.92R
$$

KSZ007>012-019>026-033>040-048>060-102>105-040800-
NORTHEAST KANSAS

CITY           SKY/WX    TMP DP  RH WIND       PRES   REMARKS
CONCORDIA      MOCLDY    77  66  68 S14       29.85S
EMPORIA        MOCLDY    73  68  84 S12       29.92R
LAWRENCE       PTCLDY    71  68  90 E5        29.92S
MANHATTAN      MOCLDY    79  67  66 S12       29.87S
MARYSVILLE     MOCLDY    75  68  78 S7        29.88S
OLATHE IND     PTCLDY    72  68  87 S7        29.95R
OLATHE EXE     PTCLDY    71  67  87 S5        29.94R
SALINA         MOCLDY    81  64  56 S15       29.86R
TOPEKA BILLARD PTCLDY    75  68  78 S8        29.91R
TOPEKA FORBES  PTCLDY    74  68  81 SE7       29.92R
$$



USA.gov is the U.S. government's official web portal to all federal, state and local government web resources and services.